EW0956 Weather Reports


Display with metric or nautical units.
time (UTC)temp
F
wind
direction
speed
MPH
gust
MPH
rain 1hr
in
rain 24hr
in
rain mn
in
humidity
%
barometer
mb
20260504100104 50 214 0.0 1.0 0.00 0.00 0.00 59 1001.7
20260504081547 52 240 0.0 2.0 0.00 0.00 0.00 53 1002.7
20260504050016 54 238 0.0 0.0 0.00 0.00 0.00 52 1005.1
20260504044514 55 225 0.0 1.0 0.00 0.00 0.00 49 1005.4
20260504043011 55 285 0.0 1.0 0.00 0.00 0.00 50 1005.7
20260504041508 55 225 0.0 1.0 0.00 0.00 0.00 49 1005.8
20260504040008 57 257 0.0 1.0 0.00 0.00 0.00 47 1006.1
20260504034507 58 287 0.0 1.0 0.00 0.00 0.00 45 1006.3
20260504033003 58 238 0.0 1.0 0.00 0.00 0.00 44 1006.5
20260504031503 59 291 0.0 1.0 0.00 0.00 0.00 43 1006.7
20260504030002 60 248 0.0 1.0 0.00 0.00 0.00 42 1006.7
20260504024502 62 288 0.0 1.0 0.00 0.00 0.00 39 1006.8
20260504023103 61 278 0.0 1.0 0.00 0.00 0.00 39 1006.7
20260504021608 62 277 0.0 1.0 0.00 0.00 0.00 37 1006.8
20260504020059 64 285 0.0 1.0 0.00 0.00 0.00 36 1006.7
20260504014558 65 273 0.0 1.0 0.00 0.00 0.00 35 1006.6
20260504013056 67 285 0.0 1.0 0.00 0.00 0.00 33 1006.5
20260504011557 68 293 0.0 1.0 0.00 0.00 0.00 30 1006.5
20260504010056 70 279 0.0 1.0 0.00 0.00 0.00 27 1006.5
20260504004555 71 293 0.0 1.0 0.00 0.00 0.00 25 1006.6
20260504003054 71 290 0.0 9.0 0.00 0.00 0.00 24 1006.6
20260504001553 72 282 5.0 9.0 0.00 0.00 0.00 25 1006.7
20260504000127 72 282 0.0 1.0 0.00 0.00 0.00 25 1006.9
20260503234550 72 301 5.0 13.0 0.00 0.00 0.00 25 1006.9
20260503233047 72 307 0.0 1.0 0.00 0.00 0.00 27 1007.0
20260503231547 72 324 0.0 2.0 0.00 0.00 0.00 27 1007.1
20260503230054 73 342 0.0 1.0 0.00 0.00 0.00 28 1007.2
20260503224543 72 298 0.0 2.0 0.00 0.00 0.00 27 1007.2
20260503223041 72 291 0.0 1.0 0.00 0.00 0.00 30 1007.4
20260503221540 72 256 0.0 1.0 0.00 0.00 0.00 30 1007.6
20260503220037 72 338 0.0 2.0 0.00 0.00 0.00 28 1007.7
20260503214534 72 321 0.0 4.0 0.00 0.00 0.00 28 1007.8
20260503213033 72 300 0.0 2.0 0.00 0.00 0.00 29 1007.8
20260503211531 71 340 0.0 11.0 0.00 0.00 0.00 28 1008.1
20260503210031 71 306 0.0 1.0 0.00 0.00 0.00 31 1008.3
20260503204530 71 297 0.0 1.0 0.00 0.00 0.00 30 1008.5
20260503203035 71 305 6.0 13.0 0.00 0.00 0.00 30 1008.6
20260503201526 71 315 6.0 13.0 0.00 0.00 0.00 30 1008.7
20260503200026 71 304 0.0 13.0 0.00 0.00 0.00 31 1008.9
20260503194524 71 342 7.0 15.0 0.00 0.00 0.00 31 1008.9
20260503193024 70 315 7.0 13.0 0.00 0.00 0.00 29 1008.9
20260503191523 71 314 0.0 14.0 0.00 0.00 0.00 31 1008.9
20260503190024 70 342 0.0 9.0 0.00 0.00 0.00 33 1009.0
20260503184520 70 333 1.0 13.0 0.00 0.00 0.00 31 1009.1
20260503183021 70 350 3.0 11.0 0.00 0.00 0.00 32 1009.1
20260503181516 70 21 2.0 11.0 0.00 0.00 0.00 33 1009.2
20260503180017 69 340 1.0 16.0 0.00 0.00 0.00 33 1009.4
20260503174515 69 324 0.0 1.0 0.00 0.00 0.00 32 1009.6
20260503173011 68 326 0.0 18.0 0.00 0.00 0.00 32 1009.8
20260503171510 68 328 8.0 15.0 0.00 0.00 0.00 35 1009.8